sat.trackr.live / text

‹ back to catalog

STARLINK-34425

NORAD 64350 · 2025-126G

PAYLOAD ACTIVE UNKNOWN

§ Identity

Operator
Country
US
Launch date
2025-06-13
Launch site
AFWTR
Launch vehicle
Mass (kg)
RCS (m²)

Purposes: comms

External: N2YO · Heavens-Above · Gunter

§ Orbital elements

Epoch: 2026-05-24T21:13:04.003968Z

Period
96.11 min
Inclination
70.0008°
Eccentricity
0.0003792
Mean motion
14.98334375 rev/d
Perigee alt
569.4 km
Apogee alt
574.7 km
Semi-major
6,950.2 km
B*
1.7353e-4
RAAN
202.3970°
Arg perigee
267.7471°
Mean anomaly
92.3254°
Rev number
5,209

§ Raw data

STARLINK-344251 64350U 25126G   26144.88407412  .00001978  00000+0  17353-3 0  99912 64350  70.0008 202.3970 0003792 267.7471  92.3254 14.98334375 52091

JSON: /api/v1/satellites/64350 · /tle

For live sub-satellite position, see the globe view (requires WebGL).

§ Visibility from observer

Set your observer location to see the next 7 days of passes ≥ 10°. The values pass through the URL so the page stays shareable.

No JS? Fill the form by hand. The geolocation button needs JavaScript.